Regional Weather Roundup
Issued by NWS

Home | Current Version | Previous Version | Text Only | Print | Product List | Glossary On
Versions: 1 2 3 4 5 6 7 8 9 10 11 12 13 14 15 16 17 18 19 20 21 22 23 24 25 26 27
000
ASCA42 TJSJ 210110
RWRPR
PUERTO RICO/U.S. VIRGIN ISLANDS HOURLY WEATHER ROUNDUP
NATIONAL WEATHER SERVICE SAN JUAN PR
900 PM AST SAT JAN 20 2018

PRZ001>002-007>008-010-210200-
PUERTO RICO

CITY           SKY/WX    TMP DP  RH WIND       PRES   REMARKS
SAN JUAN LMM   PTCLDY    79  73  83 E13       30.09R
AGUADILLA      CLEAR     75  70  83 E14       30.08R
$$

VIZ001>002-210200-
U.S. VIRGIN ISLANDS

CITY           SKY/WX    TMP DP  RH WIND       PRES   REMARKS
CHARLOTTE AMA  CLEAR     77  72  83 E6        30.08R
CHRISTIANSTED  CLEAR     73  72  94 NE7       30.08R
$$

HOURLY WEATHER ROUNDUP FOR THE NEWS MEDIA

CITY           SKY/WX    TMP DP  RH WIND       PRES   REMARKS
ORLANDO        FAIR      61  50  67 NE6       30.28R
NEW YORK       FAIR      46  29  51 W10       30.02R
NEWARK         MOCLDY    45  28  51 W7        30.01R
CHICAGO        CLOUDY    42  36  79 S12       29.98R
HARTFORD       FAIR      43  27  53 W10       29.91R
BOSTON         MOCLDY    43  27  53 SW10      29.90R
DALLAS         CLEAR     65  57  75 S20G26    29.91R
PHILADELPHIA   MOCLDY    43  28  55 NW6       30.05R
LOS ANGELES    PTCLDY    60  41  49 NW16      30.07R
WASHINGTON DC  FAIR      38  30  73 CALM      30.06R



USA.gov is the U.S. government's official web portal to all federal, state and local government web resources and services.